SCP
4 4 4 4 4 4 4 4 4 4 4 5 6 6 5 4 3 2 2 2 2 2 1 1 1 1 1 1 1 1 1 1 0 0 0 0 0 0 0 0 0 0 0
4 4 4 4 4 4 4 4 4 4 5 6 6 6 4 4 3 2 2 2 2 1 1 1 1 1 2 2 2 1 1 1 0 0 0 0 0 0 0 0 0 0 0
4 4 5 4 3 3 4 4 4 4 5 5 5 5 4 3 2 2 2 2 1 1 1 1 2 2 2 2 2 1 1 1 0 0 0 0 0 0 0 0 0 0 0
5 5 5 4 4 3 4 4 4 4 5 4 4 3 3 2 2 2 2 1 1 1 1 2 2 2 3 2 2 1 1 1 0 0 0 0 0 0 0 0 0 0 0
6 5 5 5 5 5 6 5 5 4 4 3 3 2 2 2 2 1 1 1 1 1 1 1 2 2 2 2 1 1 0 0 0 0 0 0 0 0 0 0 0 0 0
6 5 5 5 6 7 7 6 5 4 3 3 2 2 2 2 1 1 1 1 1 1 1 1 1 2 2 1 1 1 0 0 0 0 0 0 0 0 0 0 0 0 0
8 6 4 4 5 6 6 5 4 3 3 2 2 2 1 1 1 1 1 1 1 1 1 1 1 1 1 1 1 1 0 0 0 0 0 0 0 0 0 0 0 0 0
9 6 4 3 3 4 3 3 2 2 2 2 1 1 1 1 1 1 0 0 1 1 1 0 0 0 0 1 1 1 0 0 0 0 0 0 0 0 0 0 0 0 0
9 6 4 3 3 3 2 2 2 2 1 1 1 1 1 1 1 1 0 0 0 0 0 0 0 0 0 0 0 0 0 0 0 0 0 0 0 0 0 0 0 0 0
9 6 4 3 2 2 2 2 1 1 1 1 1 1 1 1 1 0 0 0 0 0 0 0 0 0 0 0 0 0 0 0 0 0 0 0 0 0 0 0 0 0 0
8 6 5 4 3 2 2 1 1 1 1 1 1 1 1 1 0 0 0 0 0 0 0 0 0 0 0 0 0 0 0 0 0 0 0 0 0 0 0 0 0 0 0
7 6 5 4 3 2 2 1 1 1 1 1 1 1 1 1 0 0 0 0 0 0 0 0 0 0 0 0 0 0 0 0 0 0 0 0 0 0 0 0 0 0 0
5 6 6 4 3 2 1 1 1 1 1 1 1 1 1 0 0 0 0 0 0 0 0 0 0 0 0 0 0 0 0 0 0 0 0 0 0 0 0 0 0 0 0
3 4 5 4 3 2 2 2 1 1 1 1 0 0 0 0 0 0 0 0 0 0 0 0 0 0 0 0 0 0 0 0 0 0 0 0 0 0 0 0 0 0 0
2 3 4 4 3 2 2 2 2 2 1 1 0 0 0 0 0 0 0 0 0 0 0 0 0 0 0 0 0 0 0 0 0 0 0 0 0 0 0 0 0 0 0
1 1 2 3 3 3 3 2 2 2 1 0 0 0 0 0 0 0 0 0 0 0 0 0 0 0 0 0 0 0 0 0 0 0 0 0 0 0 0 0 0 0 0
1 1 1 2 2 2 2 2 2 1 1 0 0 0 0 0 0 0 0 0 0 0 0 0 0 0 0 0 0 0 0 0 0 0 0 0 0 0 0 0 0 0 0
1 1 1 1 1 2 2 2 1 1 1 0 0 0 0 0 0 0 0 0 0 0 0 0 0 0 0 0 0 0 0 0 0 0 0 0 0 0 0 0 0 0 0
1 0 0 0 1 1 1 1 1 1 0 0 0 0 0 0 0 0 0 0 0 0 0 0 0 0 0 0 0 0 0 0 0 0 0 0 0 0 0 0 0 0 0
0 0 0 0 0 0 0 0 0 0 0 0 0 0 0 0 0 0 0 0 0 0 0 0 0 0 0 0 0 0 0 0 0 0 0 0 0 0 0 0 0 0 0
0 0 0 0 0 0 0 0 0 0 0 0 0 0 0 0 0 0 0 0 0 0 0 0 0 0 0 0 0 0 0 0 0 0 0 0 0 0 0 0 0 0 0
0 0 0 0 0 0 0 0 0 0 0 0 0 0 0 0 0 0 0 0 0 0 0 0 0 0 0 0 0 0 0 0 0 0 0 0 0 0 0 0 0 0 0
0 0 0 0 0 0 0 0 0 0 0 0 0 0 0 0 0 0 0 0 0 0 0 0 0 0 0 0 0 0 0 0 0 0 0 0 0 0 0 0 0 0 0
0 0 0 0 0 0 0 0 0 0 0 0 0 0 0 0 0 0 0 0 0 0 0 0 0 0 0 0 0 0 0 0 0 0 0 0 0 0 0 0 0 0 0
0 0 0 0 0 0 0 0 0 0 0 0 0 0 0 0 0 0 0 0 0 0 0 0 0 0 0 0 0 0 0 0 0 0 0 0 0 0 0 0 0 0 0
0 0 0 1 0 0 0 0 0 0 0 0 0 0 0 0 0 0 0 0 0 0 0 0 0 0 0 0 0 0 0 0 0 0 0 0 0 0 0 0 0 0 0
Wind_Speed
6 6 6 6 6 6 6 5 6 4 4 3 3 3 2 2 1 2 3 3 3 3 3 2 3 3 2 2 3 1 2 2 1 2 2 3 3 2 2 2 2 2 2
7 7 6 5 5 5 5 6 5 4 4 3 2 2 2 2 2 1 2 3 3 3 3 3 2 2 2 3 3 2 1 1 2 1 1 2 3 3 3 2 2 3 2
11 9 8 6 6 5 5 5 4 4 4 4 3 3 3 3 2 2 2 2 3 3 3 3 2 2 2 2 2 2 2 1 1 1 2 1 1 2 2 3 3 3 3
10 9 8 7 6 5 5 5 4 4 4 4 4 5 3 2 1 1 1 2 3 3 3 3 2 2 2 2 2 2 1 1 1 1 0 1 2 1 1 2 3 3 3
10 10 9 8 7 6 6 5 4 4 4 4 4 4 4 3 2 2 3 3 3 3 3 3 2 2 2 2 2 2 2 0 0 0 1 1 1 1 1 2 2 3 2
10 8 7 7 6 6 5 5 5 4 4 4 4 5 5 5 4 3 2 2 2 2 3 3 2 2 1 2 2 1 2 1 1 0 0 1 1 1 1 1 1 2 2
10 9 10 9 8 7 6 5 6 5 4 4 4 4 5 5 4 3 2 1 1 2 3 3 2 2 1 1 2 2 2 1 1 1 1 0 1 1 1 1 1 1 1
10 10 10 9 9 9 8 7 6 5 4 4 4 4 4 3 3 3 2 1 0 1 2 2 3 3 2 2 2 2 2 1 1 2 1 1 1 1 1 2 2 0 1
8 9 9 8 8 7 7 7 7 5 4 4 4 4 4 4 3 2 2 1 0 1 2 2 3 3 3 3 3 2 2 2 2 2 1 1 1 0 0 1 2 3 1
8 8 7 7 7 6 6 6 6 6 4 4 4 4 4 3 3 2 2 1 1 2 2 2 2 3 3 3 3 2 2 3 2 1 2 2 1 1 1 0 0 1 3
8 8 6 6 6 6 6 6 6 5 5 5 5 4 3 3 2 1 1 1 1 2 2 2 2 3 3 3 3 3 3 3 3 3 2 2 1 1 1 1 0 0 1
8 7 7 6 6 6 6 6 5 5 5 5 5 4 3 3 2 1 1 1 1 1 2 2 2 3 3 3 3 2 3 2 2 3 2 2 2 2 1 1 1 0 0
8 7 6 6 6 5 5 5 5 5 5 5 5 4 3 2 2 1 1 1 1 2 2 2 2 2 2 3 3 2 2 2 2 2 2 2 2 2 1 1 1 0 0
7 7 6 5 5 5 5 5 4 4 5 5 5 4 3 2 2 1 1 1 1 1 1 2 1 1 2 2 3 3 3 3 3 2 2 1 1 1 1 1 0 0 0
7 7 7 6 6 6 5 4 4 4 5 5 4 3 2 2 2 1 1 1 1 1 1 2 2 2 2 2 2 3 3 3 3 3 2 2 2 1 1 1 1 0 0
8 7 7 8 8 7 6 5 4 5 5 5 4 3 2 2 2 1 1 1 1 2 2 2 1 2 2 3 3 2 2 2 2 2 3 2 3 4 4 2 1 2 2
8 8 7 7 8 7 7 6 5 5 5 5 4 3 3 2 1 1 2 1 1 1 2 1 1 2 2 3 4 3 2 2 1 2 2 2 3 3 2 3 3 2 2
8 7 6 6 6 6 6 6 6 5 5 4 4 3 3 3 2 1 1 0 0 0 0 1 1 1 3 4 4 4 2 2 2 2 1 1 2 3 2 2 2 3 2
7 7 6 6 6 6 6 6 5 5 5 4 4 3 3 2 2 1 1 1 0 0 1 1 1 1 3 4 4 3 1 2 3 3 2 1 2 3 2 1 2 3 4
7 7 6 6 6 5 6 6 5 5 5 4 4 3 3 3 2 2 1 1 1 1 1 2 2 2 3 4 4 2 1 1 2 3 3 3 3 3 2 1 1 2 3
7 7 7 6 6 6 6 6 5 5 4 4 3 3 3 3 3 2 1 1 1 1 1 2 3 2 3 3 4 3 1 0 1 2 3 3 4 4 4 1 1 3 3
7 7 6 5 4 5 6 6 5 4 4 3 3 2 2 2 2 2 1 1 1 0 2 2 3 3 3 3 3 3 1 0 0 2 3 3 5 5 5 3 3 4 2
6 5 6 5 3 4 6 6 4 4 4 3 3 2 1 1 1 2 1 1 0 1 2 2 2 3 3 3 4 4 3 2 1 2 4 5 7 7 4 5 5 3 1
6 5 6 6 4 4 4 5 4 4 4 4 2 2 1 1 1 1 1 1 2 1 2 2 2 3 3 3 2 2 2 3 2 3 4 5 6 4 4 4 3 2 2
4 5 6 6 5 4 4 4 4 4 4 3 2 1 1 1 1 1 2 3 4 5 4 4 3 3 3 5 4 2 2 1 2 2 2 2 3 3 3 3 3 2 1
5 5 5 5 5 5 4 4 4 5 4 3 2 2 1 1 1 1 2 4 5 7 8 8 6 5 7 7 6 5 4 4 2 1 2 3 3 3 3 3 3 3 3
Wind_Direction
152 145 151 142 127 122 119 120 120 123 119 114 114 108 101 86 69 72 64 55 52 59 59 48 35 38 36 7 359 6 7 0 9 37 6 357 4 22 16 24 44 39 26
147 154 154 147 137 135 133 130 131 130 130 127 124 122 121 106 99 64 49 45 50 46 62 59 42 33 33 15 9 23 25 350 16 70 52 356 350 2 8 16 36 25 21
159 164 157 148 139 135 142 140 132 125 125 119 104 92 77 62 50 38 30 23 40 48 54 54 49 34 47 24 0 13 52 352 332 49 122 128 258 315 334 1 17 16 20
161 161 158 154 150 144 129 121 119 112 113 115 118 121 123 121 134 107 49 27 28 33 47 49 46 36 37 28 354 10 9 77 342 325 350 170 172 167 310 331 355 5 12
161 161 162 157 148 138 128 120 114 105 101 104 115 116 111 114 106 82 65 45 26 25 29 32 31 26 21 11 5 358 2 28 102 312 310 355 35 129 166 285 322 346 344
160 155 151 142 135 130 127 124 120 111 107 104 102 110 113 110 105 88 71 41 19 11 9 16 13 7 7 357 356 353 353 349 357 324 219 179 175 212 174 223 283 305 312
158 156 153 149 149 145 139 133 125 115 106 102 99 107 112 113 113 113 99 68 29 6 351 3 353 355 359 360 10 16 354 349 0 322 287 229 215 195 180 173 227 290 302
160 161 158 155 158 153 147 141 133 125 118 108 101 100 103 104 103 104 110 100 102 295 323 3 5 3 6 10 19 23 355 2 352 339 330 295 269 179 179 180 168 225 314
152 156 156 156 155 150 149 147 139 129 122 117 107 96 93 96 97 97 97 99 358 322 353 3 7 0 6 12 25 21 348 348 344 338 348 330 299 287 206 178 172 166 207
143 142 146 151 150 146 141 137 134 130 123 116 113 110 104 102 108 105 92 52 350 354 2 5 4 4 9 10 17 4 348 1 349 338 3 3 338 351 7 139 192 168 172
147 144 141 144 139 134 132 129 129 124 122 121 118 115 110 103 103 97 84 63 6 356 357 353 359 7 10 7 13 3 6 12 358 352 13 3 5 14 5 19 24 78 157
142 138 135 130 133 139 139 137 138 136 136 134 130 130 125 114 104 86 46 43 18 354 2 15 20 18 19 17 17 7 10 13 4 356 14 356 11 13 359 20 17 352 187
139 133 132 135 141 139 137 140 143 143 140 136 135 132 127 124 123 97 43 27 26 18 22 40 43 28 18 13 8 8 5 7 2 358 11 353 25 7 353 19 28 3 0
143 143 143 146 148 145 143 146 146 141 139 138 139 141 152 156 144 124 79 43 39 40 21 28 33 24 12 14 13 17 17 10 8 6 4 356 20 344 326 2 338 358 27
143 150 151 150 147 141 144 147 146 144 145 143 144 161 160 141 124 113 93 49 32 40 39 45 25 10 15 19 16 6 10 6 2 360 0 358 353 338 301 249 233 172 160
157 158 157 154 152 150 152 148 150 156 150 150 157 156 144 138 130 125 97 52 33 28 43 43 29 15 11 14 19 15 357 352 356 347 345 346 355 353 352 338 295 217 193
162 162 169 164 160 161 159 157 160 155 149 152 155 149 148 139 131 111 93 68 25 41 48 21 23 7 340 354 5 8 9 357 337 318 328 342 349 353 351 344 340 322 263
160 159 166 159 156 154 151 149 150 149 149 153 155 151 148 142 135 113 106 343 351 30 338 314 312 326 326 345 358 0 14 3 344 332 313 327 330 334 342 342 341 330 315
159 161 158 149 146 149 150 144 151 151 151 156 159 156 151 156 159 163 225 226 158 289 269 280 285 304 313 330 340 351 12 8 347 340 342 349 337 327 347 11 350 341 331
144 144 141 135 141 149 144 142 150 151 161 168 168 167 163 168 180 200 216 223 195 238 261 284 283 284 296 316 336 351 39 2 334 335 334 333 329 325 342 23 8 339 317
136 136 136 140 150 147 140 144 148 163 175 168 163 167 173 183 195 204 217 210 225 289 301 297 299 296 292 314 336 354 78 254 307 319 318 316 320 323 326 320 243 262 281
128 133 138 145 153 148 141 142 159 170 160 155 158 173 189 205 184 180 234 233 190 272 292 303 310 305 301 305 317 341 342 253 182 284 290 298 313 315 317 312 292 292 303
137 138 143 145 152 155 146 151 171 162 150 146 155 178 197 220 196 179 207 246 255 234 269 274 283 294 302 308 316 322 318 308 229 266 277 294 309 317 313 300 297 305 307
142 141 142 148 157 161 155 162 167 157 149 155 175 192 181 264 284 236 209 213 231 236 257 262 262 277 287 291 306 316 318 321 312 307 308 309 308 306 297 298 301 287 241
144 143 149 155 163 161 161 166 164 154 153 170 189 199 208 218 267 273 243 231 235 220 217 232 224 222 257 262 251 239 267 277 291 316 333 339 336 330 315 307 295 287 285
148 148 153 158 164 164 168 176 173 164 162 175 197 211 227 242 240 260 304 296 264 265 247 235 226 235 239 252 261 262 267 279 295 11 313 302 299 292 290 288 288 282 267